This is the latest recevied weather packets stored in our database for station/object N3TJJ-11. If no packets are shown the sender has not sent any weather packets the latest 10 day(s).
| Time | Temp. | Humidity | Pressure | Rain* | Wind** | Luminosity | Snow |
|---|---|---|---|---|---|---|---|
| 1777910029 | 17.22° C | 45% | 1011.8 hPa | 0 mm | - | - | - |
| 1777909666 | 16.67° C | 46% | 1011.9 hPa | 0 mm | - | - | - |
| 1777909427 | 16.67° C | 45% | 1012 hPa | 0 mm | - | - | - |
| 1777908946 | 16.67° C | 44% | 1012.2 hPa | 0 mm | - | - | - |
| 1777908828 | 16.67° C | 46% | 1012.2 hPa | 0 mm | - | - | - |
| 1777908226 | 16.11° C | 45% | 1012.1 hPa | 0 mm | - | - | - |
| 1777907627 | 16.11° C | 49% | 1012.3 hPa | 0 mm | - | - | - |
| 1777907506 | 16.11° C | 48% | 1012.3 hPa | 0 mm | - | - | - |
| 1777907027 | 15.56° C | 47% | 1012.4 hPa | 0 mm | - | - | - |
| 1777906786 | 15.56° C | 49% | 1012.4 hPa | 0 mm | - | - | - |
| 1777906428 | 15° C | 50% | 1012.4 hPa | 0 mm | - | - | - |
| 1777906066 | 15° C | 50% | 1012.4 hPa | 0 mm | - | - | - |
| 1777905827 | 15° C | 48% | 1012.5 hPa | 0 mm | - | - | - |
| 1777905346 | 14.44° C | 51% | 1012.5 hPa | 0 mm | - | - | - |
| 1777905227 | 14.44° C | 50% | 1012.6 hPa | 0 mm | - | - | - |
| 1777904626 | 14.44° C | 55% | 1012.5 hPa | 0 mm | - | - | - |
| 1777904027 | 13.89° C | 56% | 1012.5 hPa | 0 mm | - | - | - |
| 1777903906 | 13.89° C | 58% | 1012.5 hPa | 0 mm | - | - | - |
| 1777903428 | 13.33° C | 57% | 1012.6 hPa | 0 mm | - | - | - |
| 1777903186 | 13.33° C | 58% | 1012.5 hPa | 0 mm | - | - | - |
| 1777902829 | 12.78° C | 59% | 1012.4 hPa | 0 mm | - | - | - |
| 1777902466 | 12.78° C | 61% | 1012.5 hPa | 0 mm | - | - | - |
| 1777902227 | 12.78° C | 61% | 1012.6 hPa | 0 mm | - | - | - |
| 1777901746 | 12.22° C | 61% | 1012.7 hPa | 0 mm | - | - | - |
| 1777901627 | 12.22° C | 61% | 1012.7 hPa | 0 mm | - | - | - |
* Rain latest hour (hover to see other rain measurements)
** Current wind speed in m/s (hover to see current wind gust speed)